Time,TemperatureF,DewpointF,PressureIn,WindDirection,WindDirectionDegrees,WindSpeedMPH,WindSpeedGustMPH,Humidity,HourlyPrecipIn,Conditions,Clouds,dailyrainin,SoftwareType,DateUTC
2013-05-24 00:02:00,54.3,47.9,30.19,NNE,32,7.5,15.0,79,0.00,,CLR,0.00,VWS V14.01,2013-05-24 05:02:00,
2013-05-24 00:07:00,54.1,47.7,30.19,NNE,28,1.5,15.0,79,0.00,,CLR,0.00,VWS V14.01,2013-05-24 05:07:00,
2013-05-24 00:12:00,53.9,47.5,30.19,NNE,32,12.0,15.0,79,0.00,,CLR,0.00,VWS V14.01,2013-05-24 05:12:00,
2013-05-24 00:17:00,53.7,47.0,30.19,NNE,32,9.0,21.0,78,0.00,,CLR,0.00,VWS V14.01,2013-05-24 05:17:00,
2013-05-24 00:22:00,53.6,46.9,30.19,NNE,14,10.5,21.0,78,0.00,,CLR,0.00,VWS V14.01,2013-05-24 05:22:00,
2013-05-24 00:28:00,53.4,46.7,30.20,NNE,23,3.0,21.0,78,0.00,,CLR,0.00,VWS V14.01,2013-05-24 05:28:00,
2013-05-24 00:33:00,53.2,46.5,30.20,NNE,24,4.5,16.5,78,0.00,,CLR,0.00,VWS V14.01,2013-05-24 05:33:00,
2013-05-24 00:38:00,53.0,46.3,30.20,NE,38,4.5,16.5,78,0.00,,CLR,0.00,VWS V14.01,2013-05-24 05:38:00,
2013-05-24 00:43:00,52.8,46.1,30.20,NE,34,9.0,16.5,78,0.00,,CLR,0.00,VWS V14.01,2013-05-24 05:43:00,
2013-05-24 00:48:00,52.7,45.4,30.20,NNE,24,7.5,16.5,76,0.00,,CLR,0.00,VWS V14.01,2013-05-24 05:48:00,
2013-05-24 00:53:00,52.5,44.8,30.20,NNE,27,7.5,16.5,75,0.00,,CLR,0.00,VWS V14.01,2013-05-24 05:53:00,
2013-05-24 00:58:00,52.4,44.7,30.20,NE,35,7.5,16.5,75,0.00,,CLR,0.00,VWS V14.01,2013-05-24 05:58:00,
2013-05-24 01:03:00,52.3,44.3,30.20,NNE,27,6.0,13.5,74,0.00,,CLR,0.00,VWS V14.01,2013-05-24 06:03:00,
2013-05-24 01:08:00,52.2,43.5,30.20,NNE,20,12.0,15.0,72,0.00,,CLR,0.00,VWS V14.01,2013-05-24 06:08:00,
2013-05-24 01:13:00,52.2,43.5,30.21,NNE,21,12.0,15.0,72,0.00,,CLR,0.00,VWS V14.01,2013-05-24 06:13:00,
2013-05-24 01:18:00,52.2,43.1,30.21,NNE,32,6.0,16.5,71,0.00,,CLR,0.00,VWS V14.01,2013-05-24 06:18:00,
2013-05-24 01:23:00,52.1,43.0,30.22,NNE,26,6.0,16.5,71,0.00,,CLR,0.00,VWS V14.01,2013-05-24 06:23:00,
2013-05-24 01:28:00,52.1,42.6,30.21,NNE,27,10.5,24.0,70,0.00,,CLR,0.00,VWS V14.01,2013-05-24 06:28:00,
2013-05-24 01:33:00,52.1,42.6,30.21,NNE,26,7.5,16.5,70,0.00,,CLR,0.00,VWS V14.01,2013-05-24 06:33:00,
2013-05-24 01:38:00,51.9,42.8,30.21,NE,40,7.5,16.5,71,0.00,,CLR,0.00,VWS V14.01,2013-05-24 06:38:00,
2013-05-24 01:43:00,51.9,42.8,30.21,NNE,30,6.0,16.5,71,0.00,,CLR,0.00,VWS V14.01,2013-05-24 06:43:00,
2013-05-24 01:48:00,51.8,42.7,30.21,NNE,32,6.0,16.5,71,0.00,,CLR,0.00,VWS V14.01,2013-05-24 06:48:00,
2013-05-24 01:53:00,51.7,42.6,30.21,NNE,28,6.0,16.5,71,0.00,,CLR,0.00,VWS V14.01,2013-05-24 06:53:00,
2013-05-24 01:58:00,51.6,42.5,30.22,NE,42,6.0,16.5,71,0.00,,CLR,0.00,VWS V14.01,2013-05-24 06:58:00,
2013-05-24 02:03:00,51.4,42.7,30.21,NNE,28,9.0,9.0,72,0.00,,CLR,0.00,VWS V14.01,2013-05-24 07:03:00,
2013-05-24 02:08:00,51.3,42.6,30.22,NNE,31,4.5,10.5,72,0.00,,CLR,0.00,VWS V14.01,2013-05-24 07:08:00,
2013-05-24 02:13:00,51.2,42.9,30.22,NNE,23,9.0,12.0,73,0.00,,CLR,0.00,VWS V14.01,2013-05-24 07:13:00,
2013-05-24 02:19:00,51.1,42.8,30.22,NNE,30,9.0,13.5,73,0.00,,CLR,0.00,VWS V14.01,2013-05-24 07:19:00,
2013-05-24 02:24:00,51.0,42.7,30.22,NE,37,9.0,15.0,73,0.00,,CLR,0.00,VWS V14.01,2013-05-24 07:24:00,
2013-05-24 02:29:00,50.8,42.1,30.22,NNE,26,15.0,15.0,72,0.00,,CLR,0.00,VWS V14.01,2013-05-24 07:29:00,
2013-05-24 02:34:00,50.8,41.8,30.23,NNE,25,7.5,16.5,71,0.00,,CLR,0.00,VWS V14.01,2013-05-24 07:34:00,
2013-05-24 02:39:00,50.7,41.7,30.23,NNE,28,4.5,16.5,71,0.00,,CLR,0.00,VWS V14.01,2013-05-24 07:39:00,
2013-05-24 02:44:00,50.5,41.1,30.22,NE,40,6.0,16.5,70,0.00,,CLR,0.00,VWS V14.01,2013-05-24 07:44:00,
2013-05-24 02:49:00,50.4,41.0,30.22,NE,40,7.5,16.5,70,0.00,,CLR,0.00,VWS V14.01,2013-05-24 07:49:00,
2013-05-24 02:54:00,50.4,40.6,30.22,NE,36,4.5,16.5,69,0.00,,CLR,0.00,VWS V14.01,2013-05-24 07:54:00,
2013-05-24 02:59:00,50.3,40.5,30.22,NNE,30,3.0,16.5,69,0.00,,CLR,0.00,VWS V14.01,2013-05-24 07:59:00,
2013-05-24 03:04:00,50.2,40.4,30.22,NE,40,6.0,13.5,69,0.00,,CLR,0.00,VWS V14.01,2013-05-24 08:04:00,
2013-05-24 03:09:00,50.1,40.7,30.23,NE,37,4.5,13.5,70,0.00,,CLR,0.00,VWS V14.01,2013-05-24 08:09:00,
2013-05-24 03:14:00,50.0,40.6,30.23,NNE,24,6.0,13.5,70,0.00,,CLR,0.00,VWS V14.01,2013-05-24 08:14:00,
2013-05-24 03:19:00,50.0,41.0,30.23,NNE,30,4.5,13.5,71,0.00,,CLR,0.00,VWS V14.01,2013-05-24 08:19:00,
2013-05-24 03:24:00,49.9,40.5,30.23,NE,34,7.5,15.0,70,0.00,,CLR,0.00,VWS V14.01,2013-05-24 08:24:00,
2013-05-24 03:29:00,49.9,40.2,30.23,NE,35,4.5,10.5,69,0.00,,CLR,0.00,VWS V14.01,2013-05-24 08:29:00,
2013-05-24 03:34:00,49.7,40.0,30.23,NE,40,6.0,15.0,69,0.00,,CLR,0.00,VWS V14.01,2013-05-24 08:34:00,
2013-05-24 03:39:00,49.6,39.1,30.23,NNE,30,6.0,15.0,67,0.00,,CLR,0.00,VWS V14.01,2013-05-24 08:39:00,
2013-05-24 03:44:00,49.5,39.0,30.23,NNE,27,6.0,15.0,67,0.00,,CLR,0.00,VWS V14.01,2013-05-24 08:44:00,
2013-05-24 03:49:00,49.4,38.9,30.23,NNE,22,1.5,15.0,67,0.00,,CLR,0.00,VWS V14.01,2013-05-24 08:49:00,
2013-05-24 03:54:00,49.3,38.8,30.24,NNE,23,0.0,15.0,67,0.00,,CLR,0.00,VWS V14.01,2013-05-24 08:54:00,
2013-05-24 03:59:00,49.1,39.0,30.24,NNE,22,1.5,3.0,68,0.00,,CLR,0.00,VWS V14.01,2013-05-24 08:59:00,
2013-05-24 04:04:00,48.9,39.2,30.24,NNE,23,0.0,3.0,69,0.00,,CLR,0.00,VWS V14.01,2013-05-24 09:04:00,
2013-05-24 04:09:00,48.6,39.3,30.24,NNE,23,3.0,4.5,70,0.00,,CLR,0.00,VWS V14.01,2013-05-24 09:09:00,
2013-05-24 04:14:00,48.5,39.2,30.24,NNE,26,4.5,7.5,70,0.00,,CLR,0.00,VWS V14.01,2013-05-24 09:14:00,
2013-05-24 04:19:00,48.5,39.2,30.24,NNE,27,3.0,7.5,70,0.00,,CLR,0.00,VWS V14.01,2013-05-24 09:19:00,
2013-05-24 04:25:00,48.4,39.1,30.24,NNE,26,1.5,9.0,70,0.00,,CLR,0.00,VWS V14.01,2013-05-24 09:25:00,
2013-05-24 04:30:00,48.3,39.0,30.24,NNE,26,0.0,1.5,70,0.00,,CLR,0.00,VWS V14.01,2013-05-24 09:30:00,
2013-05-24 04:35:00,48.2,38.9,30.25,NNE,26,0.0,3.0,70,0.00,,CLR,0.00,VWS V14.01,2013-05-24 09:35:00,
2013-05-24 04:40:00,48.1,39.2,30.24,NNE,26,0.0,3.0,71,0.00,,CLR,0.00,VWS V14.01,2013-05-24 09:40:00,
2013-05-24 04:45:00,47.9,39.3,30.25,NNE,26,0.0,3.0,72,0.00,,CLR,0.00,VWS V14.01,2013-05-24 09:45:00,
2013-05-24 04:50:00,47.8,39.2,30.25,NNE,26,0.0,4.5,72,0.00,,CLR,0.00,VWS V14.01,2013-05-24 09:50:00,
2013-05-24 04:55:00,47.6,39.0,30.26,NNE,26,0.0,4.5,72,0.00,,CLR,0.00,VWS V14.01,2013-05-24 09:55:00,
2013-05-24 05:00:00,47.5,38.9,30.26,NNE,26,0.0,1.5,72,0.00,,CLR,0.00,VWS V14.01,2013-05-24 10:00:00,
2013-05-24 05:05:00,47.4,38.8,30.26,NNE,26,0.0,1.5,72,0.00,,CLR,0.00,VWS V14.01,2013-05-24 10:05:00,
2013-05-24 05:10:00,47.4,38.8,30.27,NNE,26,1.5,1.5,72,0.00,,CLR,0.00,VWS V14.01,2013-05-24 10:10:00,
2013-05-24 05:15:00,47.3,38.4,30.27,NNE,26,0.0,1.5,71,0.00,,CLR,0.00,VWS V14.01,2013-05-24 10:15:00,
2013-05-24 05:20:00,47.2,38.7,30.27,NNE,26,0.0,1.5,72,0.00,,CLR,0.00,VWS V14.01,2013-05-24 10:20:00,
2013-05-24 05:25:00,47.0,38.5,30.27,NNE,26,0.0,1.5,72,0.00,,CLR,0.00,VWS V14.01,2013-05-24 10:25:00,
2013-05-24 05:30:00,47.0,38.5,30.28,NNE,26,0.0,0.0,72,0.00,,CLR,0.00,VWS V14.01,2013-05-24 10:30:00,
2013-05-24 05:35:00,46.8,38.3,30.28,NNE,26,0.0,0.0,72,0.00,,CLR,0.00,VWS V14.01,2013-05-24 10:35:00,
2013-05-24 05:40:00,46.7,38.2,30.29,NNE,26,0.0,0.0,72,0.00,,CLR,0.00,VWS V14.01,2013-05-24 10:40:00,
2013-05-24 05:45:00,46.6,38.4,30.29,NNE,26,0.0,0.0,73,0.00,,CLR,0.00,VWS V14.01,2013-05-24 10:45:00,
2013-05-24 05:50:00,46.5,38.3,30.29,NNE,26,0.0,0.0,73,0.00,,CLR,0.00,VWS V14.01,2013-05-24 10:50:00,
2013-05-24 05:55:00,46.3,38.1,30.30,NNE,26,0.0,0.0,73,0.00,,CLR,0.00,VWS V14.01,2013-05-24 10:55:00,
2013-05-24 06:00:00,46.1,37.9,30.30,NNE,26,0.0,0.0,73,0.00,,CLR,0.00,VWS V14.01,2013-05-24 11:00:00,
2013-05-24 06:05:00,45.9,38.1,30.31,NNE,26,0.0,3.0,74,0.00,,CLR,0.00,VWS V14.01,2013-05-24 11:05:00,
2013-05-24 06:10:00,45.8,37.7,30.31,NNE,26,3.0,4.5,73,0.00,,CLR,0.00,VWS V14.01,2013-05-24 11:10:00,
2013-05-24 06:15:00,45.9,37.8,30.31,NNE,26,0.0,6.0,73,0.00,,CLR,0.00,VWS V14.01,2013-05-24 11:15:00,
2013-05-24 06:20:00,46.0,38.2,30.31,NNE,26,0.0,6.0,74,0.00,,CLR,0.00,VWS V14.01,2013-05-24 11:20:00,
2013-05-24 06:25:00,46.0,38.5,30.32,NNE,26,0.0,6.0,75,0.00,,CLR,0.00,VWS V14.01,2013-05-24 11:25:00,
2013-05-24 06:31:00,46.0,38.9,30.32,NNE,26,0.0,3.0,76,0.00,,CLR,0.00,VWS V14.01,2013-05-24 11:31:00,
2013-05-24 06:36:00,46.0,38.5,30.32,NNE,25,4.5,9.0,75,0.00,,CLR,0.00,VWS V14.01,2013-05-24 11:36:00,
2013-05-24 06:41:00,46.1,37.6,30.31,NNE,31,7.5,13.5,72,0.00,,CLR,0.00,VWS V14.01,2013-05-24 11:41:00,
2013-05-24 06:46:00,46.3,37.4,30.32,NNE,24,4.5,13.5,71,0.00,,CLR,0.00,VWS V14.01,2013-05-24 11:46:00,
2013-05-24 06:51:00,46.5,38.3,30.32,NNE,24,0.0,13.5,73,0.00,,CLR,0.00,VWS V14.01,2013-05-24 11:51:00,
2013-05-24 06:56:00,46.7,39.2,30.32,NNE,24,0.0,13.5,75,0.00,,CLR,0.00,VWS V14.01,2013-05-24 11:56:00,
2013-05-24 07:01:00,46.7,39.2,30.32,NNE,24,0.0,1.5,75,0.00,,SKC,0.00,VWS V14.01,2013-05-24 12:01:00,
2013-05-24 07:06:00,46.7,39.5,30.32,NNE,24,0.0,1.5,76,0.00,,SKC,0.00,VWS V14.01,2013-05-24 12:06:00,
2013-05-24 07:11:00,46.8,39.7,30.32,NNE,24,3.0,7.5,76,0.00,,SKC,0.00,VWS V14.01,2013-05-24 12:11:00,
2013-05-24 07:16:00,47.0,39.8,30.32,NNE,24,7.5,9.0,76,0.00,,SKC,0.00,VWS V14.01,2013-05-24 12:16:00,
2013-05-24 07:21:00,47.1,39.6,30.33,NNE,23,7.5,10.5,75,0.00,,SKC,0.00,VWS V14.01,2013-05-24 12:21:00,
2013-05-24 07:26:00,47.1,39.6,30.33,NNE,17,6.0,10.5,75,0.00,,SKC,0.00,VWS V14.01,2013-05-24 12:26:00,
2013-05-24 07:31:00,47.1,39.9,30.33,NNE,22,10.5,10.5,76,0.00,,SKC,0.00,VWS V14.01,2013-05-24 12:31:00,
2013-05-24 07:36:00,47.1,40.3,30.33,NNE,24,6.0,12.0,77,0.00,,SKC,0.00,VWS V14.01,2013-05-24 12:36:00,
2013-05-24 07:41:00,47.2,40.0,30.33,NNE,23,4.5,12.0,76,0.00,,SKC,0.00,VWS V14.01,2013-05-24 12:41:00,
2013-05-24 07:46:00,47.3,40.1,30.33,NNE,21,0.0,12.0,76,0.00,,SKC,0.00,VWS V14.01,2013-05-24 12:46:00,
2013-05-24 07:51:00,47.4,40.2,30.33,NNE,26,6.0,12.0,76,0.00,,SKC,0.00,VWS V14.01,2013-05-24 12:51:00,
2013-05-24 07:56:00,47.5,40.0,30.33,NNE,27,4.5,12.0,75,0.00,,SKC,0.00,VWS V14.01,2013-05-24 12:56:00,
2013-05-24 08:01:00,47.5,40.0,30.34,NNE,23,7.5,9.0,75,0.00,,SKC,0.00,VWS V14.01,2013-05-24 13:01:00,
2013-05-24 08:06:00,47.5,40.0,30.34,NNE,24,4.5,9.0,75,0.00,,SKC,0.00,VWS V14.01,2013-05-24 13:06:00,
2013-05-24 08:11:00,47.6,40.4,30.35,NNE,24,1.5,9.0,76,0.00,,SKC,0.00,VWS V14.01,2013-05-24 13:11:00,
2013-05-24 08:16:00,47.9,41.0,30.35,NNE,23,3.0,10.5,77,0.00,,SKC,0.00,VWS V14.01,2013-05-24 13:16:00,
2013-05-24 08:21:00,48.1,41.2,30.35,NNE,23,3.0,10.5,77,0.00,,SKC,0.00,VWS V14.01,2013-05-24 13:21:00,
2013-05-24 08:27:00,48.3,41.4,30.35,NNE,23,0.0,10.5,77,0.00,,SKC,0.00,VWS V14.01,2013-05-24 13:27:00,
2013-05-24 08:32:00,48.4,41.2,30.35,NNE,24,3.0,9.0,76,0.00,,SKC,0.00,VWS V14.01,2013-05-24 13:32:00,
2013-05-24 08:37:00,48.5,41.3,30.36,NNE,24,0.0,9.0,76,0.00,,SKC,0.00,VWS V14.01,2013-05-24 13:37:00,
2013-05-24 08:42:00,48.7,41.5,30.36,NNE,24,1.5,9.0,76,0.00,,SKC,0.00,VWS V14.01,2013-05-24 13:42:00,
2013-05-24 08:47:00,48.9,42.0,30.36,NNE,24,0.0,9.0,77,0.00,,SKC,0.00,VWS V14.01,2013-05-24 13:47:00,
2013-05-24 08:52:00,49.1,41.5,30.36,NNE,24,0.0,9.0,75,0.00,,SKC,0.00,VWS V14.01,2013-05-24 13:52:00,
2013-05-24 08:57:00,49.2,42.0,30.36,NNE,22,0.0,9.0,76,0.00,,SKC,0.00,VWS V14.01,2013-05-24 13:57:00,
2013-05-24 09:02:00,49.4,41.8,30.37,NNE,22,0.0,6.0,75,0.00,,SKC,0.00,VWS V14.01,2013-05-24 14:02:00,
2013-05-24 09:07:00,49.5,41.6,30.37,NNE,23,0.0,6.0,74,0.00,,SKC,0.00,VWS V14.01,2013-05-24 14:07:00,
2013-05-24 09:12:00,49.7,41.8,30.37,NNE,23,0.0,6.0,74,0.00,,SKC,0.00,VWS V14.01,2013-05-24 14:12:00,
2013-05-24 09:17:00,49.8,41.5,30.37,NNE,23,0.0,6.0,73,0.00,,SKC,0.00,VWS V14.01,2013-05-24 14:17:00,
2013-05-24 09:22:00,50.1,42.2,30.37,NNE,24,0.0,9.0,74,0.00,,SKC,0.00,VWS V14.01,2013-05-24 14:22:00,
2013-05-24 09:27:00,50.3,41.6,30.37,NNE,22,0.0,9.0,72,0.00,,SKC,0.00,VWS V14.01,2013-05-24 14:27:00,
2013-05-24 09:32:00,50.6,42.3,30.37,NNE,24,0.0,6.0,73,0.00,,SKC,0.00,VWS V14.01,2013-05-24 14:32:00,
2013-05-24 09:37:00,51.0,43.0,30.37,NNE,24,3.0,6.0,74,0.00,,SKC,0.00,VWS V14.01,2013-05-24 14:37:00,
2013-05-24 09:42:00,51.4,42.3,30.37,NNE,19,3.0,9.0,71,0.00,,SKC,0.00,VWS V14.01,2013-05-24 14:42:00,
2013-05-24 09:47:00,51.6,42.5,30.37,NNE,20,0.0,9.0,71,0.00,,SKC,0.00,VWS V14.01,2013-05-24 14:47:00,
2013-05-24 09:52:00,51.8,42.7,30.37,NNE,23,3.0,9.0,71,0.00,,SKC,0.00,VWS V14.01,2013-05-24 14:52:00,
2013-05-24 09:57:00,52.1,43.4,30.37,NNE,23,0.0,9.0,72,0.00,,SKC,0.00,VWS V14.01,2013-05-24 14:57:00,
2013-05-24 10:02:00,52.3,43.2,30.36,NNE,24,0.0,7.5,71,0.00,,SKC,0.00,VWS V14.01,2013-05-24 15:02:00,
2013-05-24 10:07:00,52.4,42.5,30.36,NNE,27,0.0,7.5,69,0.00,,SKC,0.00,VWS V14.01,2013-05-24 15:07:00,
2013-05-24 10:12:00,52.5,43.4,30.37,NNE,26,6.0,7.5,71,0.00,,SKC,0.00,VWS V14.01,2013-05-24 15:12:00,
2013-05-24 10:17:00,52.6,42.7,30.36,NNE,26,0.0,9.0,69,0.00,,SKC,0.00,VWS V14.01,2013-05-24 15:17:00,
2013-05-24 10:22:00,52.9,43.8,30.36,NNE,24,0.0,9.0,71,0.00,,SKC,0.00,VWS V14.01,2013-05-24 15:22:00,
2013-05-24 10:27:00,53.2,43.7,30.37,NNE,22,3.0,9.0,70,0.00,,SKC,0.00,VWS V14.01,2013-05-24 15:27:00,
2013-05-24 10:32:00,53.5,44.0,30.36,NNE,22,0.0,3.0,70,0.00,,SKC,0.00,VWS V14.01,2013-05-24 15:32:00,
2013-05-24 10:37:00,53.8,43.9,30.37,NNE,18,6.0,6.0,69,0.00,,SKC,0.00,VWS V14.01,2013-05-24 15:37:00,
2013-05-24 10:42:00,54.1,43.8,30.37,NNE,17,0.0,6.0,68,0.00,,SKC,0.00,VWS V14.01,2013-05-24 15:42:00,
2013-05-24 10:48:00,54.2,43.5,30.37,NNE,21,3.0,9.0,67,0.00,,SKC,0.00,VWS V14.01,2013-05-24 15:48:00,
2013-05-24 10:53:00,54.4,43.3,30.37,NNE,22,0.0,9.0,66,0.00,,SKC,0.00,VWS V14.01,2013-05-24 15:53:00,
2013-05-24 10:58:00,54.6,42.7,30.37,NNE,25,1.5,9.0,64,0.00,,SKC,0.00,VWS V14.01,2013-05-24 15:58:00,
2013-05-24 11:03:00,54.8,43.3,30.37,NNE,25,0.0,3.0,65,0.00,,SKC,0.00,VWS V14.01,2013-05-24 16:03:00,
2013-05-24 11:08:00,55.1,43.6,30.37,NNE,14,3.0,7.5,65,0.00,,SKC,0.00,VWS V14.01,2013-05-24 16:08:00,
2013-05-24 11:13:00,55.4,43.4,30.36,NNE,17,7.5,7.5,64,0.00,,SKC,0.00,VWS V14.01,2013-05-24 16:13:00,
2013-05-24 11:18:00,55.9,43.5,30.37,NNE,24,0.0,12.0,63,0.00,,SKC,0.00,VWS V14.01,2013-05-24 16:18:00,
2013-05-24 11:23:00,56.3,44.3,30.37,NNE,24,0.0,12.0,64,0.00,,SKC,0.00,VWS V14.01,2013-05-24 16:23:00,
2013-05-24 11:28:00,56.7,43.4,30.37,NNE,22,1.5,12.0,61,0.00,,SKC,0.00,VWS V14.01,2013-05-24 16:28:00,
2013-05-24 11:33:00,56.9,42.7,30.37,NNE,19,4.5,7.5,59,0.00,,SKC,0.00,VWS V14.01,2013-05-24 16:33:00,
2013-05-24 11:38:00,57.2,43.0,30.37,NNE,20,0.0,7.5,59,0.00,,SKC,0.00,VWS V14.01,2013-05-24 16:38:00,
2013-05-24 11:43:00,57.6,43.4,30.37,NNE,22,3.0,7.5,59,0.00,,SKC,0.00,VWS V14.01,2013-05-24 16:43:00,
2013-05-24 11:48:00,57.9,42.8,30.36,NNE,23,0.0,7.5,57,0.00,,SKC,0.00,VWS V14.01,2013-05-24 16:48:00,
2013-05-24 11:53:00,58.5,44.2,30.36,NNE,24,0.0,7.5,59,0.00,,SKC,0.00,VWS V14.01,2013-05-24 16:53:00,
2013-05-24 11:58:00,59.0,44.7,30.37,NNE,24,0.0,7.5,59,0.00,,SKC,0.00,VWS V14.01,2013-05-24 16:58:00,
2013-05-24 12:03:00,59.3,44.5,30.36,NNE,22,0.0,6.0,58,0.00,,SKC,0.00,VWS V14.01,2013-05-24 17:03:00,
2013-05-24 12:08:00,59.5,43.8,30.36,NNE,22,0.0,6.0,56,0.00,,SKC,0.00,VWS V14.01,2013-05-24 17:08:00,
2013-05-24 12:13:00,59.9,44.2,30.36,North,9,0.0,9.0,56,0.00,,SKC,0.00,VWS V14.01,2013-05-24 17:13:00,
2013-05-24 12:18:00,60.0,43.8,30.36,North,9,0.0,9.0,55,0.00,,SKC,0.00,VWS V14.01,2013-05-24 17:18:00,
2013-05-24 12:23:00,60.2,44.9,30.36,NNE,16,1.5,9.0,57,0.00,,SKC,0.00,VWS V14.01,2013-05-24 17:23:00,
2013-05-24 12:28:00,60.5,44.3,30.36,NNE,16,0.0,9.0,55,0.00,,SKC,0.00,VWS V14.01,2013-05-24 17:28:00,
2013-05-24 12:33:00,60.9,47.4,30.36,NNE,28,3.0,7.5,61,0.00,,SKC,0.00,VWS V14.01,2013-05-24 17:33:00,
2013-05-24 12:38:00,61.4,44.6,30.36,NNE,21,3.0,7.5,54,0.00,,SKC,0.00,VWS V14.01,2013-05-24 17:38:00,
2013-05-24 12:43:00,61.4,44.6,30.36,NNE,21,0.0,7.5,54,0.00,,SKC,0.00,VWS V14.01,2013-05-24 17:43:00,
2013-05-24 12:48:00,61.5,46.1,30.35,North,355,0.0,7.5,57,0.00,,SKC,0.00,VWS V14.01,2013-05-24 17:48:00,
2013-05-24 12:53:00,61.5,44.2,30.36,North,5,1.5,9.0,53,0.00,,SKC,0.00,VWS V14.01,2013-05-24 17:53:00,
2013-05-24 12:58:00,61.7,43.9,30.36,North,5,0.0,9.0,52,0.00,,SKC,0.00,VWS V14.01,2013-05-24 17:58:00,
2013-05-24 13:03:00,62.0,44.7,30.36,North,5,0.0,3.0,53,0.00,,SKC,0.00,VWS V14.01,2013-05-24 18:03:00,
2013-05-24 13:08:00,62.4,46.0,30.36,North,5,1.5,3.0,55,0.00,,SKC,0.00,VWS V14.01,2013-05-24 18:08:00,
2013-05-24 13:13:00,62.5,44.2,30.36,North,5,0.0,6.0,51,0.00,,SKC,0.00,VWS V14.01,2013-05-24 18:13:00,
2013-05-24 13:18:00,62.8,46.9,30.36,North,5,3.0,7.5,56,0.00,,SKC,0.00,VWS V14.01,2013-05-24 18:18:00,
2013-05-24 13:24:00,62.9,43.5,30.35,North,5,0.0,7.5,49,0.00,,SKC,0.00,VWS V14.01,2013-05-24 18:24:00,
2013-05-24 13:29:00,63.1,45.2,30.35,North,5,0.0,7.5,52,0.00,,SKC,0.00,VWS V14.01,2013-05-24 18:29:00,
2013-05-24 13:34:00,63.3,43.3,30.35,North,5,0.0,4.5,48,0.00,,SKC,0.00,VWS V14.01,2013-05-24 18:34:00,
2013-05-24 13:39:00,63.6,44.6,30.35,North,5,0.0,4.5,50,0.00,,SKC,0.00,VWS V14.01,2013-05-24 18:39:00,
2013-05-24 13:44:00,63.9,43.3,30.35,NNE,20,6.0,12.0,47,0.00,,SKC,0.00,VWS V14.01,2013-05-24 18:44:00,
2013-05-24 13:49:00,64.2,44.7,30.35,NNE,26,0.0,12.0,49,0.00,,SKC,0.00,VWS V14.01,2013-05-24 18:49:00,
2013-05-24 13:54:00,64.5,43.8,30.35,NNE,29,7.5,12.0,47,0.00,,SKC,0.00,VWS V14.01,2013-05-24 18:54:00,
2013-05-24 13:59:00,64.6,42.8,30.35,NNE,24,0.0,12.0,45,0.00,,SKC,0.00,VWS V14.01,2013-05-24 18:59:00,
2013-05-24 14:04:00,64.7,42.3,30.35,NNE,24,1.5,4.5,44,0.00,,SKC,0.00,VWS V14.01,2013-05-24 19:04:00,
2013-05-24 14:09:00,64.9,44.2,30.35,NNE,24,0.0,4.5,47,0.00,,SKC,0.00,VWS V14.01,2013-05-24 19:09:00,
2013-05-24 14:14:00,65.4,44.7,30.35,NNE,27,0.0,4.5,47,0.00,,SKC,0.00,VWS V14.01,2013-05-24 19:14:00,
2013-05-24 14:19:00,65.8,42.1,30.35,NNE,24,4.5,9.0,42,0.00,,SKC,0.00,VWS V14.01,2013-05-24 19:19:00,
2013-05-24 14:24:00,65.7,44.4,30.35,NNE,26,3.0,9.0,46,0.00,,SKC,0.00,VWS V14.01,2013-05-24 19:24:00,
2013-05-24 14:29:00,65.7,43.8,30.35,NNE,24,0.0,1.5,45,0.00,,SKC,0.00,VWS V14.01,2013-05-24 19:29:00,
2013-05-24 14:34:00,65.9,44.6,30.35,NNE,19,4.5,7.5,46,0.00,,SKC,0.00,VWS V14.01,2013-05-24 19:34:00,
2013-05-24 14:39:00,65.9,44.6,30.34,NNE,19,4.5,7.5,46,0.00,,SKC,0.00,VWS V14.01,2013-05-24 19:39:00,
2013-05-24 14:44:00,65.9,44.0,30.34,NNE,24,4.5,10.5,45,0.00,,SKC,0.00,VWS V14.01,2013-05-24 19:44:00,
2013-05-24 14:49:00,66.0,42.3,30.34,NNE,29,1.5,10.5,42,0.00,,SKC,0.00,VWS V14.01,2013-05-24 19:49:00,
2013-05-24 14:54:00,66.2,43.7,30.34,NNE,27,4.5,10.5,44,0.00,,SKC,0.00,VWS V14.01,2013-05-24 19:54:00,
2013-05-24 14:59:00,66.2,42.5,30.34,NNE,26,1.5,3.0,42,0.00,,SKC,0.00,VWS V14.01,2013-05-24 19:59:00,
2013-05-24 15:04:00,66.3,43.2,30.34,NNE,26,0.0,4.5,43,0.00,,SKC,0.00,VWS V14.01,2013-05-24 20:04:00,
2013-05-24 15:09:00,66.4,45.0,30.34,NNE,26,0.0,4.5,46,0.00,,SKC,0.00,VWS V14.01,2013-05-24 20:09:00,
2013-05-24 15:14:00,66.6,41.5,30.33,NNE,26,1.5,10.5,40,0.00,,SKC,0.00,VWS V14.01,2013-05-24 20:14:00,
2013-05-24 15:19:00,66.7,42.3,30.33,NNE,26,1.5,10.5,41,0.00,,SKC,0.00,VWS V14.01,2013-05-24 20:19:00,
2013-05-24 15:24:00,66.9,44.3,30.32,NNE,28,3.0,10.5,44,0.00,,SKC,0.00,VWS V14.01,2013-05-24 20:24:00,
2013-05-24 15:29:00,67.1,42.6,30.32,NNE,26,6.0,6.0,41,0.00,,SKC,0.00,VWS V14.01,2013-05-24 20:29:00,
2013-05-24 15:34:00,67.2,42.7,30.32,NNE,23,4.5,12.0,41,0.00,,SKC,0.00,VWS V14.01,2013-05-24 20:34:00,
2013-05-24 15:39:00,67.2,42.1,30.32,NNE,24,0.0,12.0,40,0.00,,SKC,0.00,VWS V14.01,2013-05-24 20:39:00,
2013-05-24 15:44:00,67.0,43.2,30.31,NNE,25,1.5,12.0,42,0.00,,SKC,0.00,VWS V14.01,2013-05-24 20:44:00,
2013-05-24 15:49:00,67.0,43.2,30.31,NE,34,4.5,12.0,42,0.00,,SKC,0.00,VWS V14.01,2013-05-24 20:49:00,
2013-05-24 15:54:00,66.9,43.1,30.31,NNE,26,1.5,12.0,42,0.00,,SKC,0.00,VWS V14.01,2013-05-24 20:54:00,
2013-05-24 15:59:00,66.9,43.7,30.31,NNE,28,4.5,4.5,43,0.00,,SKC,0.00,VWS V14.01,2013-05-24 20:59:00,
2013-05-24 16:05:00,67.0,43.2,30.31,NNE,24,7.5,7.5,42,0.00,,SKC,0.00,VWS V14.01,2013-05-24 21:05:00,
2013-05-24 16:10:00,66.9,43.7,30.31,NNE,22,0.0,9.0,43,0.00,,SKC,0.00,VWS V14.01,2013-05-24 21:10:00,
2013-05-24 16:15:00,67.0,45.6,30.30,NNE,22,0.0,9.0,46,0.00,,SKC,0.00,VWS V14.01,2013-05-24 21:15:00,
2013-05-24 16:20:00,67.3,44.1,30.30,NNE,22,0.0,9.0,43,0.00,,SKC,0.00,VWS V14.01,2013-05-24 21:20:00,
2013-05-24 16:25:00,67.4,44.2,30.30,NNE,25,4.5,10.5,43,0.00,,SKC,0.00,VWS V14.01,2013-05-24 21:25:00,
2013-05-24 16:30:00,67.3,44.7,30.29,NNE,25,1.5,1.5,44,0.00,,SKC,0.00,VWS V14.01,2013-05-24 21:30:00,
2013-05-24 16:35:00,67.4,45.3,30.29,NNE,25,1.5,4.5,45,0.00,,SKC,0.00,VWS V14.01,2013-05-24 21:35:00,
2013-05-24 16:40:00,67.4,45.3,30.29,NNE,25,0.0,6.0,45,0.00,,SKC,0.00,VWS V14.01,2013-05-24 21:40:00,
2013-05-24 16:45:00,67.6,46.1,30.29,NNE,25,0.0,6.0,46,0.00,,SKC,0.00,VWS V14.01,2013-05-24 21:45:00,
2013-05-24 16:50:00,68.0,46.5,30.28,NNE,25,0.0,6.0,46,0.00,,SKC,0.00,VWS V14.01,2013-05-24 21:50:00,
2013-05-24 16:55:00,68.2,46.1,30.28,NNE,22,0.0,7.5,45,0.00,,SKC,0.00,VWS V14.01,2013-05-24 21:55:00,
2013-05-24 17:00:00,68.3,46.7,30.28,NNE,22,0.0,0.0,46,0.00,,SKC,0.00,VWS V14.01,2013-05-24 22:00:00,
2013-05-24 17:05:00,68.6,47.0,30.28,NNE,22,0.0,3.0,46,0.00,,SKC,0.00,VWS V14.01,2013-05-24 22:05:00,
2013-05-24 17:10:00,68.7,48.8,30.28,NNE,21,0.0,7.5,49,0.00,,SKC,0.00,VWS V14.01,2013-05-24 22:10:00,
2013-05-24 17:15:00,68.6,45.2,30.28,NNE,22,1.5,7.5,43,0.00,,SKC,0.00,VWS V14.01,2013-05-24 22:15:00,
2013-05-24 17:20:00,68.6,46.4,30.28,NNE,22,4.5,7.5,45,0.00,,SKC,0.00,VWS V14.01,2013-05-24 22:20:00,
2013-05-24 17:25:00,68.7,45.9,30.28,NNE,22,0.0,7.5,44,0.00,,SKC,0.00,VWS V14.01,2013-05-24 22:25:00,
2013-05-24 17:30:00,69.0,45.6,30.28,NNE,22,1.5,4.5,43,0.00,,SKC,0.00,VWS V14.01,2013-05-24 22:30:00,
2013-05-24 17:35:00,69.1,45.1,30.28,NNE,22,0.0,4.5,42,0.00,,SKC,0.00,VWS V14.01,2013-05-24 22:35:00,
2013-05-24 17:40:00,69.2,46.4,30.28,NNE,22,1.5,4.5,44,0.00,,SKC,0.00,VWS V14.01,2013-05-24 22:40:00,
2013-05-24 17:45:00,69.2,45.8,30.28,NNE,18,0.0,7.5,43,0.00,,SKC,0.00,VWS V14.01,2013-05-24 22:45:00,
2013-05-24 17:50:00,69.5,46.7,30.28,NNE,18,0.0,7.5,44,0.00,,SKC,0.00,VWS V14.01,2013-05-24 22:50:00,
2013-05-24 17:55:00,69.5,46.0,30.27,NNE,18,0.0,7.5,43,0.00,,SKC,0.00,VWS V14.01,2013-05-24 22:55:00,
2013-05-24 18:00:00,69.2,45.8,30.27,NNE,18,0.0,3.0,43,0.00,,SKC,0.00,VWS V14.01,2013-05-24 23:00:00,
2013-05-24 18:05:00,68.8,46.6,30.27,NNE,18,0.0,3.0,45,0.00,,SKC,0.00,VWS V14.01,2013-05-24 23:05:00,
2013-05-24 18:10:00,69.1,46.9,30.27,NNE,18,0.0,3.0,45,0.00,,SKC,0.00,VWS V14.01,2013-05-24 23:10:00,
2013-05-24 18:15:00,69.4,47.7,30.27,NNE,18,0.0,3.0,46,0.00,,SKC,0.00,VWS V14.01,2013-05-24 23:15:00,
2013-05-24 18:21:00,69.5,47.2,30.26,NNE,18,0.0,3.0,45,0.00,,SKC,0.00,VWS V14.01,2013-05-24 23:21:00,
2013-05-24 18:26:00,69.5,46.0,30.27,NNE,18,0.0,3.0,43,0.00,,SKC,0.00,VWS V14.01,2013-05-24 23:26:00,
2013-05-24 18:31:00,69.5,45.4,30.26,NNE,18,0.0,0.0,42,0.00,,SKC,0.00,VWS V14.01,2013-05-24 23:31:00,
2013-05-24 18:36:00,69.4,46.0,30.26,NNE,18,0.0,0.0,43,0.00,,CLR,0.00,VWS V14.01,2013-05-24 23:36:00,
2013-05-24 18:41:00,69.2,45.2,30.25,NNE,18,0.0,0.0,42,0.00,,CLR,0.00,VWS V14.01,2013-05-24 23:41:00,
2013-05-24 18:46:00,69.4,44.7,30.25,NNE,18,0.0,0.0,41,0.00,,CLR,0.00,VWS V14.01,2013-05-24 23:46:00,
2013-05-24 18:51:00,69.6,44.9,30.25,NNE,18,0.0,0.0,41,0.00,,CLR,0.00,VWS V14.01,2013-05-24 23:51:00,
2013-05-24 18:56:00,69.6,44.2,30.25,NNE,18,0.0,0.0,40,0.00,,CLR,0.00,VWS V14.01,2013-05-24 23:56:00,
2013-05-24 19:01:00,69.5,46.0,30.25,NNE,18,0.0,0.0,43,0.00,,CLR,0.00,VWS V14.01,2013-05-25 00:01:00,
2013-05-24 19:06:00,69.3,44.6,30.25,NNE,18,0.0,1.5,41,0.00,,CLR,0.00,VWS V14.01,2013-05-25 00:06:00,
2013-05-24 19:11:00,69.2,45.2,30.26,NNE,18,0.0,1.5,42,0.00,,CLR,0.00,VWS V14.01,2013-05-25 00:11:00,
2013-05-24 19:16:00,69.2,45.8,30.25,NNE,18,0.0,1.5,43,0.00,,CLR,0.00,VWS V14.01,2013-05-25 00:16:00,
2013-05-24 19:21:00,69.2,47.0,30.25,NNE,18,0.0,1.5,45,0.00,,CLR,0.00,VWS V14.01,2013-05-25 00:21:00,
2013-05-24 19:26:00,68.9,47.3,30.25,NNE,18,0.0,1.5,46,0.00,,CLR,0.00,VWS V14.01,2013-05-25 00:26:00,
2013-05-24 19:31:00,68.5,48.1,30.25,NNE,18,0.0,0.0,48,0.00,,CLR,0.00,VWS V14.01,2013-05-25 00:31:00,
2013-05-24 19:36:00,68.1,47.7,30.25,NNE,18,0.0,0.0,48,0.00,,CLR,0.00,VWS V14.01,2013-05-25 00:36:00,
2013-05-24 19:41:00,67.7,47.3,30.25,NNE,18,0.0,0.0,48,0.00,,CLR,0.00,VWS V14.01,2013-05-25 00:41:00,
2013-05-24 19:46:00,67.2,48.5,30.25,NNE,18,0.0,0.0,51,0.00,,CLR,0.00,VWS V14.01,2013-05-25 00:46:00,
2013-05-24 19:51:00,66.6,49.5,30.25,NNE,18,0.0,0.0,54,0.00,,CLR,0.00,VWS V14.01,2013-05-25 00:51:00,
2013-05-24 19:56:00,66.1,50.0,30.25,NNE,18,0.0,0.0,56,0.00,,CLR,0.00,VWS V14.01,2013-05-25 00:56:00,
2013-05-24 20:01:00,65.6,49.0,30.25,NNE,18,0.0,0.0,55,0.00,,CLR,0.00,VWS V14.01,2013-05-25 01:01:00,
2013-05-24 20:06:00,65.0,48.9,30.25,NNE,18,0.0,0.0,56,0.00,,CLR,0.00,VWS V14.01,2013-05-25 01:06:00,
2013-05-24 20:11:00,64.5,49.9,30.25,NNE,18,0.0,0.0,59,0.00,,CLR,0.00,VWS V14.01,2013-05-25 01:11:00,
2013-05-24 20:16:00,63.9,50.6,30.25,NNE,18,0.0,0.0,62,0.00,,CLR,0.00,VWS V14.01,2013-05-25 01:16:00,
2013-05-24 20:21:00,63.3,49.6,30.25,NNE,18,0.0,0.0,61,0.00,,CLR,0.00,VWS V14.01,2013-05-25 01:21:00,
2013-05-24 20:27:00,63.1,49.5,30.25,NNE,18,0.0,0.0,61,0.00,,CLR,0.00,VWS V14.01,2013-05-25 01:27:00,
2013-05-24 20:32:00,62.5,50.2,30.25,NNE,18,0.0,0.0,64,0.00,,CLR,0.00,VWS V14.01,2013-05-25 01:32:00,
2013-05-24 20:37:00,61.6,50.1,30.25,NNE,18,0.0,0.0,66,0.00,,CLR,0.00,VWS V14.01,2013-05-25 01:37:00,
2013-05-24 20:42:00,61.4,49.5,30.25,NNE,18,0.0,0.0,65,0.00,,CLR,0.00,VWS V14.01,2013-05-25 01:42:00,
2013-05-24 20:47:00,61.3,50.3,30.25,NNE,18,0.0,0.0,67,0.00,,CLR,0.00,VWS V14.01,2013-05-25 01:47:00,
2013-05-24 20:52:00,60.9,50.7,30.25,NNE,18,0.0,0.0,69,0.00,,CLR,0.00,VWS V14.01,2013-05-25 01:52:00,
2013-05-24 20:57:00,60.2,51.5,30.26,NNE,18,0.0,0.0,73,0.00,,CLR,0.00,VWS V14.01,2013-05-25 01:57:00,
2013-05-24 21:02:00,59.8,51.9,30.25,NNE,18,0.0,0.0,75,0.00,,CLR,0.00,VWS V14.01,2013-05-25 02:02:00,
2013-05-24 21:07:00,59.4,51.5,30.26,NNE,18,0.0,0.0,75,0.00,,CLR,0.00,VWS V14.01,2013-05-25 02:07:00,
2013-05-24 21:12:00,58.9,51.0,30.26,NNE,18,0.0,0.0,75,0.00,,CLR,0.00,VWS V14.01,2013-05-25 02:12:00,
2013-05-24 21:17:00,58.3,50.4,30.26,NNE,18,0.0,0.0,75,0.00,,CLR,0.00,VWS V14.01,2013-05-25 02:17:00,
2013-05-24 21:22:00,57.7,49.8,30.26,NNE,18,0.0,0.0,75,0.00,,CLR,0.00,VWS V14.01,2013-05-25 02:22:00,
2013-05-24 21:27:00,57.5,50.0,30.26,NNE,18,0.0,0.0,76,0.00,,CLR,0.00,VWS V14.01,2013-05-25 02:27:00,
2013-05-24 21:32:00,57.2,50.1,30.26,NNE,18,0.0,0.0,77,0.00,,CLR,0.00,VWS V14.01,2013-05-25 02:32:00,
2013-05-24 21:37:00,57.0,50.6,30.27,NNE,18,0.0,0.0,79,0.00,,CLR,0.00,VWS V14.01,2013-05-25 02:37:00,
2013-05-24 21:42:00,56.8,50.4,30.27,NNE,18,0.0,0.0,79,0.00,,CLR,0.00,VWS V14.01,2013-05-25 02:42:00,
2013-05-24 21:47:00,56.4,50.0,30.28,NNE,18,0.0,0.0,79,0.00,,CLR,0.00,VWS V14.01,2013-05-25 02:47:00,
2013-05-24 21:52:00,56.1,50.0,30.28,NNE,18,0.0,0.0,80,0.00,,CLR,0.00,VWS V14.01,2013-05-25 02:52:00,
2013-05-24 21:57:00,55.9,49.8,30.28,NNE,18,0.0,0.0,80,0.00,,CLR,0.00,VWS V14.01,2013-05-25 02:57:00,
2013-05-24 22:02:00,55.7,49.6,30.28,NNE,18,0.0,0.0,80,0.00,,CLR,0.00,VWS V14.01,2013-05-25 03:02:00,
2013-05-24 22:07:00,55.5,49.4,30.28,NNE,18,0.0,0.0,80,0.00,,CLR,0.00,VWS V14.01,2013-05-25 03:07:00,
2013-05-24 22:12:00,55.3,49.6,30.28,NNE,18,0.0,0.0,81,0.00,,CLR,0.00,VWS V14.01,2013-05-25 03:12:00,
2013-05-24 22:17:00,54.9,49.2,30.29,NNE,18,0.0,0.0,81,0.00,,CLR,0.00,VWS V14.01,2013-05-25 03:17:00,
2013-05-24 22:22:00,54.6,48.9,30.29,NNE,18,0.0,0.0,81,0.00,,CLR,0.00,VWS V14.01,2013-05-25 03:22:00,
2013-05-24 22:28:00,54.3,48.9,30.30,NNE,18,0.0,0.0,82,0.00,,CLR,0.00,VWS V14.01,2013-05-25 03:28:00,
2013-05-24 22:33:00,54.0,48.6,30.30,NNE,18,0.0,0.0,82,0.00,,CLR,0.00,VWS V14.01,2013-05-25 03:33:00,
2013-05-24 22:38:00,53.7,48.3,30.30,NNE,18,0.0,0.0,82,0.00,,CLR,0.00,VWS V14.01,2013-05-25 03:38:00,
2013-05-24 22:43:00,53.5,48.5,30.30,NNE,18,0.0,0.0,83,0.00,,CLR,0.00,VWS V14.01,2013-05-25 03:43:00,
2013-05-24 22:48:00,53.2,48.2,30.31,NNE,18,0.0,0.0,83,0.00,,CLR,0.00,VWS V14.01,2013-05-25 03:48:00,
2013-05-24 22:53:00,53.0,48.3,30.31,NNE,18,0.0,0.0,84,0.00,,CLR,0.00,VWS V14.01,2013-05-25 03:53:00,
2013-05-24 22:58:00,52.7,48.3,30.31,NNE,18,0.0,0.0,85,0.00,,CLR,0.00,VWS V14.01,2013-05-25 03:58:00,
2013-05-24 23:01:00,52.6,48.2,30.31,NNE,18,0.0,0.0,85,0.00,,CLR,0.00,VWS V14.01,2013-05-25 04:01:00,
2013-05-24 23:02:00,52.5,48.1,30.31,NNE,18,0.0,0.0,85,0.00,,CLR,0.00,VWS V14.01,2013-05-25 04:02:00,
2013-05-24 23:07:00,52.3,47.9,30.30,NNE,18,0.0,0.0,85,0.00,,CLR,0.00,VWS V14.01,2013-05-25 04:07:00,
2013-05-24 23:12:00,52.2,48.2,30.31,NNE,18,0.0,0.0,86,0.00,,CLR,0.00,VWS V14.01,2013-05-25 04:12:00,
2013-05-24 23:17:00,52.0,48.0,30.31,NNE,18,0.0,0.0,86,0.00,,CLR,0.00,VWS V14.01,2013-05-25 04:17:00,
2013-05-24 23:22:00,51.8,47.8,30.30,NNE,18,0.0,0.0,86,0.00,,CLR,0.00,VWS V14.01,2013-05-25 04:22:00,
2013-05-24 23:27:00,51.7,48.0,30.30,NNE,18,0.0,0.0,87,0.00,,CLR,0.00,VWS V14.01,2013-05-25 04:27:00,
2013-05-24 23:32:00,51.6,47.9,30.30,NNE,18,0.0,0.0,87,0.00,,CLR,0.00,VWS V14.01,2013-05-25 04:32:00,
2013-05-24 23:37:00,51.5,47.8,30.30,NNE,18,0.0,0.0,87,0.00,,CLR,0.00,VWS V14.01,2013-05-25 04:37:00,
2013-05-24 23:42:00,51.4,47.7,30.30,NNE,18,0.0,0.0,87,0.00,,CLR,0.00,VWS V14.01,2013-05-25 04:42:00,
2013-05-24 23:47:00,51.2,47.5,30.30,NNE,18,0.0,0.0,87,0.00,,CLR,0.00,VWS V14.01,2013-05-25 04:47:00,
2013-05-24 23:52:00,51.1,47.7,30.30,NNE,18,0.0,0.0,88,0.00,,CLR,0.00,VWS V14.01,2013-05-25 04:52:00,
2013-05-24 23:57:00,51.0,47.6,30.30,NNE,18,0.0,0.0,88,0.00,,CLR,0.00,VWS V14.01,2013-05-25 04:57:00,